Location: Cz?stochówka
(50.8142°N, 19.0915°E)
Time: 09:38:37
(UTC+00:00)

Cosmos 2341 Rocket - Pass Details

Date: 13 January 2026
Orbit: 967 x 1004 km, 82.9° (Epoch: 17 February)

Event Time Altitude Azimuth Distance (km) Brightness Sun altitude
Rises 05:44:50 0° 187° (S) 3,714 7.3 -8.6°
Reaches altitude 10° 05:47:21 10° 187° (S) 2,770 6.6 -8.3°
Maximum altitude 05:53:45 90° 76° (ENE) 1,012 4.1 -7.3°
Drops below altitude 10° 06:00:11 10° 10° (N) 2,788 6.2 -6.4°
Sets 06:02:43 0° 11° (N) 3,739 6.9 -6.1°
